Pascagoula Weather Center

Moon Phase Calendar



Online Cameras

 


      

Current Conditions in Pascagoula
4/21/2024 9:19:50 PM

58°F
Feels Like 57
Clear
Humidity
75%
Pressure
30.12"
Wind
9.3 mph (N)
Dew Point
50°F
UV Index
0/10 (Low)
Visibility
6 mi

Hourly Forecast

Date & Time Sun, Apr 21
9:00 PM
Sun, Apr 21
10:00 PM
Sun, Apr 21
11:00 PM
Mon, Apr 22
12:00 AM
Mon, Apr 22
1:00 AM
Mon, Apr 22
2:00 AM
Mon, Apr 22
3:00 AM
Mon, Apr 22
4:00 AM
Mon, Apr 22
5:00 AM
Mon, Apr 22
6:00 AM
Mon, Apr 22
7:00 AM
Mon, Apr 22
8:00 AM
Mon, Apr 22
9:00 AM
Mon, Apr 22
10:00 AM
Mon, Apr 22
11:00 AM
Mon, Apr 22
12:00 PM
Mon, Apr 22
1:00 PM
Mon, Apr 22
2:00 PM
Mon, Apr 22
3:00 PM
Mon, Apr 22
4:00 PM
Mon, Apr 22
5:00 PM
Mon, Apr 22
6:00 PM
Mon, Apr 22
7:00 PM
Mon, Apr 22
8:00 PM
Mon, Apr 22
9:00 PM
Mon, Apr 22
10:00 PM
Mon, Apr 22
11:00 PM
Tue, Apr 23
12:00 AM
Tue, Apr 23
1:00 AM
Tue, Apr 23
2:00 AM
Tue, Apr 23
3:00 AM
Tue, Apr 23
4:00 AM
Tue, Apr 23
5:00 AM
Tue, Apr 23
6:00 AM
Tue, Apr 23
7:00 AM
Tue, Apr 23
8:00 AM
Tue, Apr 23
9:00 AM
Tue, Apr 23
10:00 AM
Tue, Apr 23
11:00 AM
Tue, Apr 23
12:00 PM
Tue, Apr 23
1:00 PM
Tue, Apr 23
2:00 PM
Tue, Apr 23
3:00 PM
Tue, Apr 23
4:00 PM
Tue, Apr 23
5:00 PM
Tue, Apr 23
6:00 PM
Tue, Apr 23
7:00 PM
Tue, Apr 23
8:00 PM
Condition
Clear

Clear

Clear

Clear

Clear

Clear

Clear

Clear

Clear

Clear

Clear

Clear

Clear

Clear

Clouds

Clouds

Clouds

Clear

Clear

Clear

Clear

Clear

Clouds

Clouds

Clouds

Clouds

Clouds

Clouds

Clouds

Clouds

Clouds

Clear

Clear

Clear

Clear

Clear

Clear

Clear

Clear

Clear

Clear

Clear

Clear

Clear

Clear

Clear

Clear

Clear
Temperature 58°F58°F57°F57°F55°F53°F52°F50°F49°F48°F48°F51°F55°F58°F61°F64°F66°F68°F70°F70°F70°F69°F64°F61°F59°F57°F57°F56°F56°F56°F56°F56°F56°F56°F57°F61°F66°F69°F70°F71°F72°F72°F72°F72°F71°F70°F67°F65°F
Feels Like 57°F57°F56°F55°F54°F51°F50°F48°F45°F43°F44°F49°F53°F56°F59°F62°F64°F66°F68°F68°F68°F67°F63°F59°F57°F55°F55°F54°F54°F54°F54°F54°F54°F54°F55°F60°F65°F68°F70°F70°F71°F71°F71°F71°F71°F70°F67°F64°F
Cloudiness 1%1%1%1%1%4%5%5%5%4%4%0%0%2%12%11%20%6%6%6%5%7%12%62%62%75%74%71%63%11%15%8%6%5%4%0%0%1%1%1%1%1%1%1%4%3%3%0%
Visibility 6 mi6 mi6 mi6 mi6 mi6 mi6 mi6 mi6 mi6 mi6 mi6 mi6 mi6 mi6 mi6 mi6 mi6 mi6 mi6 mi6 mi6 mi6 mi6 mi6 mi6 mi6 mi6 mi6 mi6 mi6 mi6 mi6 mi6 mi6 mi6 mi6 mi6 mi6 mi6 mi6 mi6 mi6 mi6 mi6 mi6 mi6 mi6 mi
Precipitation 0%0%0%0%0%0%0%0%0%0%0%0%0%0%0%0%0%0%0%0%0%0%0%0%0%0%0%0%0%0%0%0%0%0%0%0%0%0%0%0%0%0%0%0%0%0%0%0%
Humidity 75%74%73%70%66%63%65%67%70%73%74%64%53%43%38%35%32%30%29%29%30%37%47%50%54%56%57%57%59%61%61%61%61%65%68%63%58%56%53%52%52%52%53%54%56%60%68%72%
Dew Point 50°F50°F49°F47°F44°F41°F41°F40°F40°F40°F40°F40°F38°F36°F36°F36°F36°F36°F36°F36°F38°F41°F44°F42°F42°F42°F42°F42°F42°F43°F42°F42°F43°F44°F46°F49°F50°F52°F53°F53°F53°F53°F54°F54°F55°F56°F56°F55°F
Pressure 30.12"30.12"30.12"30.15"30.15"30.15"30.15"30.15"30.18"30.18"30.21"30.21"30.24"30.24"30.24"30.21"30.18"30.18"30.15"30.12"30.12"30.12"30.15"30.15"30.18"30.18"30.18"30.18"30.18"30.15"30.15"30.15"30.15"30.18"30.18"30.21"30.21"30.21"30.21"30.21"30.18"30.18"30.15"30.15"30.12"30.12"30.15"30.15"
Wind Speed 9.3 mph8.6 mph10.1 mph12.4 mph13.8 mph13.2 mph11.9 mph10.9 mph11 mph10.8 mph10.3 mph12.3 mph13.2 mph13.6 mph12.9 mph11.9 mph11 mph9.4 mph8.4 mph7.7 mph7.6 mph7.4 mph7.4 mph7.5 mph7.3 mph7.3 mph7.7 mph7.2 mph7.7 mph8.1 mph6.7 mph6.5 mph6.3 mph7.8 mph8.5 mph8.4 mph7.7 mph8.7 mph10.2 mph10.8 mph11 mph10 mph9.4 mph8.4 mph8 mph6.7 mph5.5 mph6 mph
Wind
Direction
357°
N
11°
N
12°
NNE

N

N

N

N

N

N
10°
N
15°
NNE
18°
NNE
20°
NNE
22°
NNE
20°
NNE
18°
NNE
19°
NNE
18°
NNE
15°
NNE
13°
NNE
12°
NNE

N
354°
N
356°
N
13°
NNE
29°
NNE
34°
NE
40°
NE
49°
NE
57°
ENE
70°
ENE
77°
ENE
71°
ENE
62°
ENE
59°
ENE
70°
ENE
89°
E
113°
ESE
127°
SE
138°
SE
146°
SE
153°
SSE
159°
SSE
166°
SSE
171°
S
169°
S
161°
SSE
160°
SSE

Daily Forecast

Date High Low Precip. Humidity
Today
Apr 21

Rain
71 °F
57 °F
100%
69%
Monday
Apr 22

Clouds
70 °F
48 °F
0%
35%
Tuesday
Apr 23

Clear
72 °F
56 °F
0%
52%
Wednesday
Apr 24

Clear
75 °F
62 °F
0%
55%
Thursday
Apr 25

Clouds
77 °F
66 °F
0%
57%
Friday
Apr 26

Rain
78 °F
68 °F
20%
64%
Saturday
Apr 27

Rain
78 °F
73 °F
20%
69%
Sunday
Apr 28

Rain
79 °F
72 °F
20%
65%
Monday
Apr 29

Rain
80 °F
70 °F
20%
60%
Tuesday
Apr 30

Clear
80 °F
68 °F
0%
60%
Wednesday
May 1

Clear
80 °F
69 °F
0%
57%
Thursday
May 2

Rain
82 °F
69 °F
100%
55%
Friday
May 3

Clouds
79 °F
61 °F
76%
29%
Saturday
May 4

Rain
74 °F
58 °F
34%
73%
Sunday
May 5

Rain
75 °F
66 °F
100%
62%
Monday
May 6

Clouds
77 °F
68 °F
0%
58%

Temperature 8-14 Day Outlook



Precipitation 8-14 Day Outlook




Quick Links
Pascagoula News
Pascagoula Photos
Pascagoula Videos




About Us
Contact Us
Site Map
Search Site
Advertise With Us
   
Pascagoula.USGulf.info
THE PASCAGOULA WEBSITE

Copyright 2024, Coastal Town
Privacy    |    Legal